Fitchburg, MA

4:18 PM EST on December 12, 2019 (GMT -0500)
Fitchburg Municipal

Weather History for KFIT - June, 2019

Change the Weather History Date:

Tuesday, June 4, 2019

  Actual Average (KORH) Record (KORH)
Temperature  
Mean Temperature 57 °F -  
Max Temperature 69 °F 71 °F 94 °F (1919)
Min Temperature 46 °F 51 °F 36 °F (1927)
Degree Days  
Heating Degree Days 8    
Growing Degree Days 7 (Base 50)    
Moisture  
Dew Point 37 °F    
Average Humidity 47    
Maximum Humidity 68    
Minimum Humidity 30    
Precipitation  
Precipitation 0.00 in - - ()
Sea Level Pressure  
Sea Level Pressure 30.01 in    
Wind  
Wind Speed 7 mph (WNW)    
Max Wind Speed 16 mph    
Max Gust Speed 24 mph    
Visibility 10 miles    
Events      
Averages and records for this station are not official NWS values.
T = Trace of Precipitation, MM = Missing Value Source: NWS Daily Summary

Daily Weather History Graph

Daily Weather History Graph

Search for Another Location

Airport or City:

Astronomy

Jun. 04, 2019 Rise Set
Actual Time 5:11 AM EDT 8:20 PM EDT
Civil Twilight 4:36 AM EDT 8:54 PM EDT
Nautical Twilight 3:52 AM EDT 9:38 PM EDT
Astronomical Twilight 3:00 AM EDT 10:31 PM EDT
Moon 6:17 AM EDT (6/4) 9:45 PM EDT (6/4)
Length of Visible Light 16h 17m
Length of Day
15h 09m
New Moon, 2% of the Moon is Illuminated
Jun 4
New Moon
Jun 10
First Quarter
Jun 17
Full
Jun 25
Last Quarter
Jul 2
New

Hourly Weather History & Observations

Time (EDT) Temp. Windchill Dew Point Humidity Pressure Visibility Wind Dir Wind Speed Gust Speed Precip Events Conditions
12:52 AM 50.0 °F - 37.0 °F 61% 30.01 in 10.0 mi WNW 6.9 mph - N/A   Clear
1:52 AM 48.0 °F - 37.0 °F 66% 30.00 in 10.0 mi NNW 3.5 mph - N/A   Clear
2:52 AM 46.0 °F 44.8 °F 36.0 °F 68% 30.00 in 10.0 mi NNW 3.5 mph - N/A   Clear
3:52 AM 46.0 °F 43.1 °F 36.0 °F 68% 30.02 in 10.0 mi NNW 5.8 mph - N/A   Clear
4:52 AM 48.9 °F - 35.1 °F 59% 30.03 in 10.0 mi West 8.1 mph - N/A   Clear
5:52 AM 48.0 °F - 36.0 °F 63% 30.04 in 10.0 mi NW 5.8 mph - N/A   Clear
6:52 AM 51.1 °F - 37.0 °F 59% 30.05 in 10.0 mi Variable 4.6 mph - N/A   Clear
7:52 AM 55.0 °F - 37.9 °F 53% 30.06 in 10.0 mi NW 9.2 mph - N/A   Clear
8:52 AM 57.9 °F - 39.0 °F 49% 30.07 in 10.0 mi WNW 10.4 mph - N/A   Clear
9:52 AM 61.0 °F - 39.0 °F 44% 30.06 in 10.0 mi Variable 5.8 mph - N/A   Clear
10:52 AM 64.0 °F - 36.0 °F 35% 30.06 in 10.0 mi West 9.2 mph 19.6 mph N/A   Clear
11:52 AM 64.0 °F - 35.1 °F 34% 30.05 in 10.0 mi WNW 10.4 mph - N/A   Mostly Cloudy
12:52 PM 64.0 °F - 36.0 °F 35% 30.04 in 10.0 mi Variable 3.5 mph 17.3 mph N/A   Overcast
1:52 PM 66.9 °F - 35.1 °F 31% 30.01 in 10.0 mi WNW 11.5 mph 20.7 mph N/A   Partly Cloudy
2:52 PM 66.9 °F - 35.1 °F 31% 29.99 in 10.0 mi WNW 8.1 mph 17.3 mph N/A   Partly Cloudy
3:52 PM 66.9 °F - 35.1 °F 31% 29.99 in 10.0 mi WNW 9.2 mph - N/A   Clear
4:52 PM 68.0 °F - 35.1 °F 30% 29.97 in 10.0 mi WNW 9.2 mph - N/A   Clear
5:52 PM 66.0 °F - 35.1 °F 32% 29.97 in 10.0 mi Variable 6.9 mph - N/A   Clear
6:52 PM 66.0 °F - 37.0 °F 34% 29.97 in 10.0 mi WNW 8.1 mph - N/A   Mostly Cloudy
7:52 PM 64.0 °F - 37.0 °F 37% 29.99 in 10.0 mi West 16.1 mph 24.2 mph N/A   Overcast
8:52 PM 60.1 °F - 39.0 °F 46% 29.99 in 10.0 mi NW 5.8 mph - N/A   Mostly Cloudy
9:52 PM 59.0 °F - 39.9 °F 49% 29.99 in 10.0 mi NW 5.8 mph - N/A   Scattered Clouds
10:52 PM 59.0 °F - 41.0 °F 51% 29.97 in 10.0 mi South 3.5 mph - N/A   Overcast
11:52 PM 57.0 °F - 44.1 °F 62% 29.98 in 10.0 mi South 3.5 mph - N/A   Overcast